When you browse on this site, cookies collect data to enhance your experience and personalize the content and advertising you see.
Visit our Privacy Policy to learn more. By continuing to use the site, you agree to this use of cookies and data.
  • In Czech Republic
  • List of Countries
  • For 7 days
  • Water Temperature
  • Satellite Maps
  • Weather Map
  • Weather Widgets
  • user-avatar
    Login

    Hourly Weather Marrakesh

    Today, 25 June, Tuesday

    Time Temperature Precipitation Wind Pressure Humidity
    00:00 +21°C° 0 mm 1 mps 721 mmHg 64%
    01:00 +21°C° 0 mm 1 mps 721 mmHg 67%
    02:00 +20°C° 0 mm 1 mps 721 mmHg 70%
    03:00 +20°C° 0 mm 1 mps 721 mmHg 71%
    04:00 +20°C° 0 mm 1 mps 721 mmHg 71%
    05:00 +19°C° 0 mm 0 mps 721 mmHg 72%
    06:00 +23°C° 0 mm 1 mps 722 mmHg 64%
    07:00 +24°C° 0 mm 1 mps 722 mmHg 56%
    08:00 +26°C° 0 mm 1 mps 722 mmHg 48%
    09:00 +28°C° 0 mm 1 mps 722 mmHg 41%
    10:00 +30°C° 0 mm 1 mps 722 mmHg 35%
    11:00 +32°C° 0 mm 1 mps 722 mmHg 28%
    12:00 +35°C° 0 mm 2 mps 722 mmHg 25%
    13:00 +36°C° 0 mm 3 mps 722 mmHg 22%
    14:00 +38°C° 0 mm 4 mps 722 mmHg 19%
    15:00 +38°C° 0 mm 6 mps 722 mmHg 23%
    16:00 +35°C° 0 mm 7 mps 722 mmHg 27%
    17:00 +34°C° 0 mm 9 mps 722 mmHg 30%
    18:00 +32°C° 0 mm 7 mps 722 mmHg 38%
    19:00 +28°C° 0 mm 5 mps 723 mmHg 47%
    20:00 +25°C° 0 mm 3 mps 723 mmHg 55%
    21:00 +25°C° 0 mm 3 mps 723 mmHg 60%
    22:00 +24°C° 0 mm 2 mps 723 mmHg 64%
    23:00 +23°C° 0 mm 1 mps 723 mmHg 69%

    Tomorrow, 26 June, Wednesday

    Time Temperature Precipitation Wind Pressure Humidity
    00:00 +22°C° 0 mm 1 mps 722 mmHg 71%
    01:00 +22°C° 0 mm 1 mps 722 mmHg 74%
    02:00 +21°C° 0 mm 1 mps 722 mmHg 76%
    03:00 +21°C° 0 mm 1 mps 722 mmHg 77%
    04:00 +21°C° 0 mm 1 mps 722 mmHg 78%
    05:00 +21°C° 0 mm 1 mps 722 mmHg 79%
    06:00 +22°C° 0 mm 1 mps 722 mmHg 72%
    07:00 +24°C° 0 mm 1 mps 722 mmHg 65%
    08:00 +25°C° 0 mm 1 mps 722 mmHg 58%
    09:00 +27°C° 0 mm 1 mps 722 mmHg 51%
    10:00 +29°C° 0 mm 1 mps 723 mmHg 44%
    11:00 +31°C° 0 mm 2 mps 723 mmHg 38%
    12:00 +34°C° 0 mm 2 mps 722 mmHg 34%
    13:00 +35°C° 0 mm 2 mps 722 mmHg 30%
    14:00 +37°C° 0 mm 3 mps 722 mmHg 26%
    15:00 +36°C° 0 mm 4 mps 722 mmHg 30%
    16:00 +35°C° 0 mm 6 mps 722 mmHg 33%
    17:00 +34°C° 0 mm 8 mps 722 mmHg 37%
    18:00 +30°C° 0 mm 7 mps 722 mmHg 47%
    19:00 +28°C° 0 mm 6 mps 723 mmHg 58%
    20:00 +25°C° 0 mm 4 mps 723 mmHg 68%
    21:00 +23°C° 0 mm 4 mps 723 mmHg 71%
    22:00 +22°C° 0 mm 3 mps 723 mmHg 74%
    23:00 +21°C° 0 mm 3 mps 723 mmHg 77%

    Day after tomorrow, 27 June, Thursday

    Time Temperature Precipitation Wind Pressure Humidity
    00:00 +21°C° 0 mm 3 mps 722 mmHg 79%
    01:00 +21°C° 0 mm 2 mps 722 mmHg 80%
    02:00 +21°C° 0 mm 2 mps 721 mmHg 81%
    03:00 +21°C° 0 mm 2 mps 721 mmHg 82%
    04:00 +21°C° 0 mm 2 mps 721 mmHg 83%
    05:00 +20°C° 0 mm 2 mps 721 mmHg 84%
    06:00 +21°C° 0 mm 3 mps 721 mmHg 78%
    07:00 +22°C° 0 mm 3 mps 722 mmHg 73%
    08:00 +24°C° 0 mm 3 mps 722 mmHg 68%
    09:00 +26°C° 0 mm 3 mps 722 mmHg 60%
    10:00 +28°C° 0 mm 3 mps 722 mmHg 53%
    11:00 +30°C° 0 mm 3 mps 722 mmHg 45%
    12:00 +31°C° 0 mm 3 mps 722 mmHg 41%
    13:00 +34°C° 0 mm 4 mps 722 mmHg 37%
    14:00 +35°C° 0 mm 5 mps 721 mmHg 34%
    15:00 +35°C° 0 mm 5 mps 721 mmHg 35%
    16:00 +34°C° 0 mm 5 mps 721 mmHg 37%
    17:00 +33°C° 0 mm 6 mps 721 mmHg 38%
    18:00 +30°C° 0 mm 6 mps 722 mmHg 45%
    19:00 +27°C° 0 mm 6 mps 722 mmHg 52%
    20:00 +24°C° 0 mm 7 mps 722 mmHg 59%
    21:00 +23°C° 0 mm 5 mps 722 mmHg 61%
    22:00 +22°C° 0 mm 4 mps 722 mmHg 62%
    23:00 +21°C° 0 mm 2 mps 722 mmHg 64%

    28 June, Friday

    Time Temperature Precipitation Wind Pressure Humidity
    00:00 +20°C° 0 mm 2 mps 721 mmHg 66%
    01:00 +20°C° 0 mm 2 mps 720 mmHg 67%
    02:00 +19°C° 0 mm 2 mps 720 mmHg 69%
    03:00 +20°C° 0 mm 1 mps 720 mmHg 70%
    04:00 +20°C° 0 mm 1 mps 720 mmHg 71%
    05:00 +19°C° 0 mm 1 mps 720 mmHg 72%
    06:00 +21°C° 0 mm 1 mps 720 mmHg 66%
    07:00 +23°C° 0 mm 1 mps 720 mmHg 60%
    08:00 +24°C° 0 mm 1 mps 720 mmHg 54%
    09:00 +27°C° 0 mm 2 mps 720 mmHg 48%
    10:00 +29°C° 0 mm 2 mps 721 mmHg 41%
    11:00 +32°C° 0 mm 2 mps 721 mmHg 34%
    12:00 +35°C° 0 mm 3 mps 721 mmHg 30%
    13:00 +37°C° 0 mm 3 mps 720 mmHg 26%
    14:00 +38°C° 0 mm 4 mps 720 mmHg 23%
    15:00 +37°C° 0 mm 5 mps 720 mmHg 25%
    16:00 +36°C° 0 mm 7 mps 720 mmHg 28%
    17:00 +35°C° 0 mm 8 mps 720 mmHg 30%
    18:00 +32°C° 0 mm 6 mps 721 mmHg 38%
    19:00 +28°C° 0 mm 4 mps 721 mmHg 47%
    20:00 +26°C° 0 mm 2 mps 721 mmHg 55%
    21:00 +25°C° 0 mm 2 mps 721 mmHg 58%
    22:00 +24°C° 0 mm 1 mps 721 mmHg 61%
    23:00 +23°C° 0 mm 1 mps 721 mmHg 65%

    29 June, Saturday

    Time Temperature Precipitation Wind Pressure Humidity
    00:00 +22°C° 0 mm 1 mps 720 mmHg 67%
    01:00 +21°C° 0 mm 1 mps 720 mmHg 70%
    02:00 +21°C° 0 mm 1 mps 719 mmHg 73%
    03:00 +21°C° 0 mm 1 mps 719 mmHg 73%
    04:00 +21°C° 0 mm 1 mps 719 mmHg 74%
    05:00 +20°C° 0 mm 1 mps 719 mmHg 75%
    06:00 +22°C° 0 mm 1 mps 720 mmHg 68%
    07:00 +24°C° 0 mm 1 mps 720 mmHg 61%
    08:00 +26°C° 0 mm 1 mps 720 mmHg 53%
    09:00 +28°C° 0 mm 2 mps 721 mmHg 46%
    10:00 +30°C° 0 mm 2 mps 721 mmHg 39%
    11:00 +34°C° 0 mm 3 mps 721 mmHg 33%
    12:00 +35°C° 0 mm 3 mps 721 mmHg 29%
    13:00 +37°C° 0 mm 4 mps 721 mmHg 26%
    14:00 +38°C° 0 mm 4 mps 721 mmHg 23%
    15:00 +37°C° 0 mm 5 mps 721 mmHg 25%
    16:00 +36°C° 0 mm 6 mps 721 mmHg 27%
    17:00 +35°C° 0 mm 7 mps 721 mmHg 29%
    18:00 +32°C° 0 mm 6 mps 722 mmHg 38%
    19:00 +28°C° 0 mm 4 mps 722 mmHg 47%
    20:00 +25°C° 0 mm 3 mps 722 mmHg 56%
    21:00 +24°C° 0 mm 2 mps 722 mmHg 61%
    22:00 +23°C° 0 mm 2 mps 722 mmHg 66%
    23:00 +22°C° 0 mm 1 mps 722 mmHg 70%

    30 June, Sunday

    Time Temperature Precipitation Wind Pressure Humidity
    00:00 +22°C° 0 mm 1 mps 722 mmHg 73%
    01:00 +21°C° 0 mm 1 mps 722 mmHg 77%
    02:00 +18°C° 0 mm 0 mps 721 mmHg 80%
    03:00 +18°C° 0 mm 0 mps 721 mmHg 80%
    04:00 +18°C° 0 mm 0 mps 722 mmHg 81%
    05:00 +18°C° 0 mm 0 mps 722 mmHg 82%
    06:00 +22°C° 0 mm 1 mps 722 mmHg 72%
    07:00 +24°C° 0 mm 1 mps 723 mmHg 63%
    08:00 +26°C° 0 mm 1 mps 723 mmHg 54%
    09:00 +29°C° 0 mm 2 mps 723 mmHg 45%
    10:00 +31°C° 0 mm 2 mps 723 mmHg 36%
    11:00 +35°C° 0 mm 2 mps 723 mmHg 28%
    12:00 +36°C° 0 mm 3 mps 723 mmHg 24%
    13:00 +38°C° 0 mm 3 mps 723 mmHg 21%
    14:00 +41°C° 0 mm 4 mps 723 mmHg 18%
    15:00 +40°C° 0 mm 5 mps 723 mmHg 19%
    16:00 +40°C° 0 mm 5 mps 723 mmHg 20%
    17:00 +39°C° 0 mm 6 mps 723 mmHg 21%
    18:00 +34°C° 0 mm 5 mps 724 mmHg 31%
    19:00 +30°C° 0 mm 4 mps 724 mmHg 41%
    20:00 +26°C° 0 mm 2 mps 724 mmHg 51%
    21:00 +25°C° 0 mm 2 mps 724 mmHg 55%
    22:00 +24°C° 0 mm 1 mps 724 mmHg 58%
    23:00 +23°C° 0 mm 1 mps 724 mmHg 62%
    Show more